Regional Weather Roundup
Issued by NWS Green Bay, WI

Home | Current Version | Previous Version | Graphics & Text | Print | Product List | Glossary Off
Versions: 1 2 3 4 5 6 7 8 9 10 11 12 13 14 15 16 17 18 19 20 21 22 23 24 25 26 27 28 29 30 31 32 33 34 35 36 37 38 39 40 41 42 43 44 45 46 47 48 49 50

000
ASUS43 KGRB 021900
RWRGRB

NORTH-CENTRAL AND NORTHEAST WISCONSIN REGIONAL WEATHER ROUNDUP
NATIONAL WEATHER SERVICE GREEN BAY WI
200 PM CDT THU JUL 02 2015

WIZ005-009-010>012-018-019-022000-
NORTH CENTRAL WISCONSIN

CITY           SKY/WX    TMP DP  RH WIND       PRES   REMARKS
IRONWOOD       MOSUNNY   75  55  50 SW7       29.98F
MANITOWISH WTR NOT AVBL
ARBOR VITAE    NOT AVBL
EAGLE RIVER    NOT AVBL
LAND O LAKES   NOT AVBL
RHINELANDER    SUNNY     73  49  42 MISG      30.05F
PHILLIPS       NOT AVBL
ANTIGO         NOT AVBL
TOMAHAWK       NOT AVBL
MERRILL        NOT AVBL
$$

WIZ013-073-022000-
NORTHEAST WISCONSIN

CITY           SKY/WX    TMP DP  RH WIND       PRES   REMARKS
IRON MOUNTAIN  SUNNY     73  48  41 VRB5      30.03F
MARINETTE      SUNNY     70  48  46 SE9       30.05S
$$

WIZ017-030-035>037-045-022000-
CENTRAL WISCONSIN

CITY           SKY/WX    TMP DP  RH WIND       PRES   REMARKS
MEDFORD        NOT AVBL
WAUSAU         SUNNY     74  44  34 SE10      30.03F
MOSINEE        SUNNY     72  48  43 VRB6      30.06S
MARSHFIELD     SUNNY     72  49  44 SE10      30.04F
WISC RAPIDS    SUNNY     73  44  35 VRB5      30.05F
STEVENS POINT  NOT AVBL
WAUPACA        NOT AVBL
SHAWANO        NOT AVBL
CLINTONVILLE   NOT AVBL
$$

WIZ038-039-048-051-022000-
FOX VALLEY

CITY           SKY/WX    TMP DP  RH WIND       PRES   REMARKS
NWS GREEN BAY  SUNNY     72  50  45 NE8       30.05F
APPLETON       SUNNY     70  45  40 E7        30.05F
OSHKOSH        SUNNY     70  48  45 NE8       30.04F
FOND DU LAC    SUNNY     71  47  42 E9        30.03F
$$

WIZ022-050-052-022000-
EAST CENTRAL WISCONSIN

CITY           SKY/WX    TMP DP  RH WIND       PRES   REMARKS
STURGEON BAY   SUNNY     66  46  48 E7        30.09S
MANITOWOC      NOT AVBL
SHEBOYGAN      SUNNY     67  49  52 NE7       30.05F
$$

LMZ563-521-522-541>543-022000-
LAKESHORE

STATION/POSITION TIME  TEMP    WIND        PRES    VSBY  WAVE
                       AIR SEA DIR/SP/G                  HT/PER
                 (UTC) (F)     (DEG/KT/KT) (MB)    (MI)  (FT/S)
SHEBOYGAN LKSHOR 1800   56      10/ 10/ 11 1018.4F
KEWAUNEE LKSHORE 1800   61      60/  4/  7 1017.8F
ALGOMA MARINA    1810           90/  7/  8   N/A
TWO RIVERS CG    1805   60 64              1021.2      6   1
NORTHPORT PIER   1800   60     100/  4/  5 1017.9F
N MID LAKE BUOY  1750   52 49  110/  2/  2 1018.5F         0
SISTER BAY LKSHO 1814   67     360/  9/ 11   N/A
STURGEON BAY CG  1800   60      90/  4     1019.2      6   1
CHAMBERS ISLAND  1800   69      10/  3/  3 1017.9F
MENOMINEE LKSHOR 1800   66     100/  2/  3 1018.7F
$$


USA.gov is the U.S. government's official web portal to all federal, state and local government web resources and services.